Pineville, WV

5:18 AM EDT on August 18, 2017 (GMT -0400)
Pineville

Weather History for KI16 - January, 2013

Change the Weather History Date:

Thursday, January 3, 2013

  Actual Average (KBKW) Record (KBKW)
Temperature  
Mean Temperature 31 °F -  
Max Temperature 39 °F 40 °F 68 °F (2000)
Min Temperature 23 °F 26 °F -4 °F (1979)
Degree Days  
Heating Degree Days 34    
Moisture  
Dew Point 27 °F    
Average Humidity 93    
Maximum Humidity 100    
Minimum Humidity 61    
Precipitation  
Precipitation 0.00 in - - ()
Sea Level Pressure  
Sea Level Pressure 30.24 in    
Wind  
Wind Speed - (North)    
Max Wind Speed -    
Max Gust Speed -    
Visibility 10 miles    
Events      
Averages and records for this station are not official NWS values.
T = Trace of Precipitation, MM = Missing Value Source: NWS Daily Summary

Daily Weather History Graph

Daily Weather History Graph

Search for Another Location

Airport or City:

Trip Planner

Search our weather history database for the weather conditions in past years. The results will help you decide how hot, cold, wet, or windy it might be!

Date:

Astronomy

Jan. 03, 2013 Rise Set
Actual Time 7:41 AM EST 5:20 PM EST
Civil Twilight 7:12 AM EST 5:49 PM EST
Nautical Twilight 6:39 AM EST 6:22 PM EST
Astronomical Twilight 6:07 AM EST 6:54 PM EST
Moon 11:46 PM EST (1/3) 10:59 AM EST (1/3)
Length of Visible Light 10h 37m
Length of Day
9h 39m
Waning Gibbous, 65% of the Moon is Illuminated
Jan 3
Waning Gibbous
Jan 4
Last Quarter
Jan 11
New
Jan 18
First Quarter
Jan 26
Full

Hourly Weather History & Observations

Time (EST) Temp. Dew Point Humidity Pressure Visibility Wind Dir Wind Speed Gust Speed Precip Events Conditions
12:15 AM 28.8 °F 28.8 °F 100% 30.20 in 10.0 mi North - - N/A   Clear
12:35 AM 28.6 °F 28.6 °F 100% 30.20 in 10.0 mi North - - N/A   Clear
12:55 AM 28.4 °F 28.4 °F 100% 30.20 in 10.0 mi North - - N/A   Clear
1:15 AM 28.4 °F 28.4 °F 100% 30.20 in 10.0 mi North - - N/A   Clear
1:35 AM 28.4 °F 28.4 °F 100% 30.20 in 10.0 mi North - - N/A   Clear
1:55 AM 28.4 °F 28.4 °F 100% 30.20 in 10.0 mi North - - N/A   Clear
2:15 AM 28.9 °F 28.9 °F 100% 30.20 in 10.0 mi North - - N/A   Clear
2:35 AM 28.4 °F 28.4 °F 100% 30.20 in 10.0 mi North - - N/A   Clear
2:55 AM 28.0 °F 28.0 °F 100% 30.20 in 10.0 mi North - - N/A   Clear
3:15 AM 27.9 °F 27.9 °F 100% 30.20 in 10.0 mi North - - N/A   Clear
3:35 AM 27.1 °F 27.1 °F 100% 30.20 in 10.0 mi North - - N/A   Clear
3:55 AM 26.6 °F 26.6 °F 100% 30.20 in 10.0 mi North - - N/A   Clear
4:15 AM 26.4 °F 26.4 °F 100% 30.19 in 10.0 mi North - - N/A   Clear
4:35 AM 26.2 °F 26.2 °F 100% 30.19 in 10.0 mi North - - N/A   Clear
4:55 AM 25.7 °F 25.7 °F 100% 30.20 in 10.0 mi North - - N/A   Clear
5:15 AM 25.3 °F 25.3 °F 100% 30.20 in 10.0 mi North - - N/A   Clear
5:35 AM 25.2 °F 25.2 °F 100% 30.21 in 10.0 mi North - - N/A   Clear
5:55 AM 25.2 °F 25.2 °F 100% 30.22 in 10.0 mi North - - N/A   Clear
6:15 AM 24.8 °F 24.8 °F 100% 30.22 in 10.0 mi North - - N/A   Clear
6:35 AM 24.4 °F 24.4 °F 100% 30.23 in 10.0 mi North - - N/A   Clear
6:55 AM 24.1 °F 24.1 °F 100% 30.23 in 10.0 mi North - - N/A   Clear
7:15 AM 24.1 °F 24.1 °F 100% 30.24 in 10.0 mi North - - N/A   Scattered Clouds
7:35 AM 25.0 °F 25.0 °F 100% 30.24 in 10.0 mi North - - N/A   Overcast
8:15 AM 26.2 °F 26.1 °F 99% 30.24 in 7.0 mi North - - N/A   Overcast
8:35 AM 26.6 °F 26.6 °F 100% 30.25 in 5.0 mi North - - N/A   Overcast
8:55 AM 27.1 °F 27.1 °F 100% 30.25 in 4.0 mi North - - N/A   Overcast
9:15 AM 27.1 °F 27.1 °F 100% 30.25 in 4.0 mi North - - N/A   Overcast
9:35 AM 27.3 °F 27.3 °F 100% 30.25 in 4.0 mi North - - N/A   Overcast
9:55 AM 28.0 °F 28.0 °F 100% 30.26 in 7.0 mi North - - N/A   Overcast
10:15 AM 28.6 °F 28.6 °F 100% 30.27 in 7.0 mi North - - N/A   Overcast
10:35 AM 29.3 °F 29.3 °F 100% 30.27 in 7.0 mi North - - N/A   Mostly Cloudy
10:55 AM 30.4 °F 30.2 °F 99% 30.27 in 7.0 mi North - - N/A   Mostly Cloudy
11:15 AM 32.2 °F 31.1 °F 96% 30.26 in 10.0 mi North - - N/A   Scattered Clouds
11:35 AM 32.5 °F 30.0 °F 90% 30.25 in 10.0 mi North - - N/A   Clear
11:55 AM 32.2 °F 28.0 °F 85% 30.25 in 10.0 mi North - - N/A   Clear
12:15 PM 34.9 °F 28.4 °F 77% 30.25 in 10.0 mi North - - N/A   Clear
12:35 PM 35.1 °F 27.7 °F 74% 30.24 in 10.0 mi North - - N/A   Clear
12:55 PM 36.1 °F 28.2 °F 73% 30.22 in 10.0 mi North - - N/A   Clear
1:15 PM 36.9 °F 27.9 °F 70% 30.22 in 10.0 mi North - - N/A   Clear
1:35 PM 37.0 °F 27.3 °F 68% 30.22 in 10.0 mi North - - N/A   Clear
1:55 PM 37.8 °F 26.4 °F 64% 30.21 in 10.0 mi North - - N/A   Clear
2:15 PM 38.5 °F 26.8 °F 63% 30.21 in 10.0 mi North - - N/A   Clear
2:35 PM 39.6 °F 28.0 °F 63% 30.21 in 10.0 mi North - - N/A   Clear
2:55 PM 39.4 °F 27.0 °F 61% 30.22 in 10.0 mi North - - N/A   Clear
3:15 PM 39.4 °F 27.1 °F 62% 30.23 in 10.0 mi North - - N/A   Clear
3:35 PM 39.2 °F 28.2 °F 65% 30.23 in 10.0 mi North - - N/A   Clear
3:55 PM 36.0 °F 29.5 °F 77% 30.23 in 10.0 mi North - - N/A   Clear
4:15 PM 35.2 °F 28.6 °F 77% 30.24 in 10.0 mi North - - N/A   Clear
4:35 PM 34.3 °F 28.9 °F 81% 30.24 in 10.0 mi North - - N/A   Clear
4:55 PM 32.5 °F 29.1 °F 87% 30.24 in 10.0 mi North - - N/A   Clear
5:15 PM 32.0 °F 29.1 °F 89% 30.25 in 10.0 mi North - - N/A   Clear
5:55 PM 30.2 °F 28.9 °F 95% 30.26 in 10.0 mi North - - N/A   Clear
6:15 PM 29.7 °F 28.4 °F 95% 30.27 in 10.0 mi North - - N/A   Clear
6:35 PM 29.3 °F 28.4 °F 96% 30.27 in 10.0 mi North - - N/A   Clear
6:55 PM 28.6 °F 27.9 °F 97% 30.28 in 10.0 mi North - - N/A   Clear
7:15 PM 28.2 °F 27.5 °F 97% 30.28 in 10.0 mi North - - N/A   Clear
7:35 PM 27.7 °F 27.3 °F 99% 30.28 in 10.0 mi North - - N/A   Clear
7:55 PM 27.1 °F 26.6 °F 98% 30.28 in 10.0 mi North - - N/A   Clear
8:15 PM 27.0 °F 26.6 °F 99% 30.29 in 10.0 mi North - - N/A   Clear
8:35 PM 26.4 °F 26.2 °F 99% 30.29 in 10.0 mi North - - N/A   Clear
8:55 PM 25.9 °F 25.5 °F 99% 30.29 in 10.0 mi North - - N/A   Clear
9:15 PM 25.7 °F 25.3 °F 99% 30.29 in 10.0 mi North - - N/A   Clear
9:35 PM 25.3 °F 25.0 °F 99% 30.30 in 10.0 mi North - - N/A   Clear
9:55 PM 24.8 °F 24.6 °F 99% 30.30 in 10.0 mi North - - N/A   Clear
10:15 PM 24.4 °F 23.9 °F 98% 30.30 in 10.0 mi North - - N/A   Clear
10:35 PM 24.3 °F 23.9 °F 99% 30.31 in 10.0 mi North - - N/A   Clear
10:55 PM 23.7 °F 23.4 °F 99% 30.31 in 10.0 mi North - - N/A   Clear
11:15 PM 23.7 °F 23.4 °F 99% 30.31 in 10.0 mi North - - N/A   Clear
11:35 PM 23.0 °F 22.8 °F 99% 30.32 in 10.0 mi North - - N/A   Clear
11:55 PM 23.0 °F 22.8 °F 99% 30.32 in 10.0 mi North - - N/A   Clear